TimeMDT,TemperatureF,Dew PointF,Humidity,Sea Level PressureIn,VisibilityMPH,Wind Direction,Wind SpeedMPH,Gust SpeedMPH,PrecipitationIn,Events,Conditions,WindDirDegrees,DateUTC
12:53 AM,51.8,33.8,50,29.98,10.0,SSW,16.1,-,N/A,,Clear,210,2012-10-30 06:53:00
1:53 AM,50.0,33.1,52,29.95,10.0,SSW,15.0,-,N/A,,Clear,200,2012-10-30 07:53:00
2:53 AM,50.0,34.0,54,29.96,10.0,SSW,16.1,-,N/A,,Scattered Clouds,200,2012-10-30 08:53:00
3:53 AM,50.0,34.0,54,29.95,10.0,SSW,8.1,-,N/A,,Clear,210,2012-10-30 09:53:00
4:53 AM,52.0,33.1,49,29.95,10.0,SSW,17.3,-,N/A,,Clear,210,2012-10-30 10:53:00
5:53 AM,52.0,33.1,49,29.94,10.0,SW,21.9,-,N/A,,Clear,220,2012-10-30 11:53:00
6:53 AM,51.1,34.0,52,29.95,10.0,SW,23.0,28.8,N/A,,Clear,220,2012-10-30 12:53:00
7:53 AM,51.1,34.0,52,29.97,10.0,SSW,18.4,-,N/A,,Clear,200,2012-10-30 13:53:00
8:53 AM,52.0,35.1,53,29.99,10.0,SSW,17.3,-,N/A,,Clear,200,2012-10-30 14:53:00
9:53 AM,54.0,35.1,49,29.99,10.0,SSW,13.8,23.0,N/A,,Clear,210,2012-10-30 15:53:00
10:53 AM,59.0,35.1,41,29.96,10.0,SSW,28.8,34.5,N/A,,Clear,210,2012-10-30 16:53:00
11:53 AM,60.1,34.0,38,29.94,10.0,SSW,24.2,31.1,N/A,,Clear,210,2012-10-30 17:53:00
12:53 PM,64.0,32.0,30,29.90,10.0,SW,27.6,34.5,N/A,,Clear,220,2012-10-30 18:53:00
1:53 PM,66.9,33.1,28,29.88,10.0,SSW,24.2,28.8,N/A,,Clear,210,2012-10-30 19:53:00
2:53 PM,64.0,33.1,31,29.87,10.0,SW,23.0,28.8,N/A,,Partly Cloudy,230,2012-10-30 20:53:00
3:53 PM,64.9,34.0,32,29.88,10.0,SW,17.3,-,N/A,,Mostly Cloudy,230,2012-10-30 21:53:00
4:53 PM,62.6,33.8,34,29.91,10.0,WSW,16.1,27.6,N/A,,Partly Cloudy,240,2012-10-30 22:53:00
5:53 PM,62.1,34.0,35,29.88,10.0,SW,15.0,-,N/A,,Clear,230,2012-10-30 23:53:00
6:53 PM,57.0,35.1,44,29.91,10.0,West,10.4,-,N/A,,Partly Cloudy,260,2012-10-31 00:53:00
7:53 PM,54.0,35.1,49,29.90,10.0,SW,12.7,-,N/A,,Clear,230,2012-10-31 01:53:00
8:53 PM,55.9,35.1,45,29.89,10.0,SW,13.8,-,N/A,,Partly Cloudy,230,2012-10-31 02:53:00
9:53 PM,55.9,36.0,47,29.90,10.0,SW,8.1,-,N/A,,Mostly Cloudy,220,2012-10-31 03:53:00
10:53 PM,54.0,37.0,53,29.89,10.0,SSW,10.4,-,N/A,,Overcast,200,2012-10-31 04:53:00
11:53 PM,55.9,37.0,49,29.90,10.0,SW,9.2,-,N/A,,Overcast,220,2012-10-31 05:53:00